�������l�o���
Date,Time,MP-1(��Sv/h),MP-2(��Sv/h),MP-3(��Sv/h),MP-4(��Sv/h),MP-5(��Sv/h),MP-6(��Sv/h),MP-7(��Sv/h),MP-8(��Sv/h),����,����(m/s),���J
2021/07/22,00:00,0.628,0.944,0.598,1.139,0.827,0.374,0.649,0.603,�k��,0.9,��
2021/07/22,00:10,0.628,0.945,0.598,1.142,0.826,0.374,0.650,0.603,���k��,1.5,��
2021/07/22,00:20,0.629,0.943,0.599,1.140,0.824,0.374,0.649,0.604,���k��,1.5,��
2021/07/22,00:30,0.629,0.942,0.600,1.142,0.824,0.375,0.649,0.603,���k��,0.9,��
2021/07/22,00:40,0.628,0.945,0.598,1.142,0.824,0.375,0.648,0.605,���k��,0.9,��
2021/07/22,00:50,0.630,0.944,0.599,1.141,0.825,0.375,0.647,0.604,�k�k��,1.5,��
2021/07/22,01:00,0.629,0.945,0.599,1.141,0.826,0.374,0.649,0.601,�k�k��,3.5,��
2021/07/22,01:10,0.628,0.944,0.598,1.142,0.827,0.375,0.648,0.604,�k�k��,3.4,��
2021/07/22,01:20,0.629,0.942,0.598,1.140,0.827,0.376,0.650,0.605,�k�k��,2.8,��
2021/07/22,01:30,0.629,0.942,0.598,1.141,0.825,0.375,0.648,0.604,�k�k��,2.2,��
2021/07/22,01:40,0.629,0.945,0.598,1.140,0.826,0.375,0.648,0.605,�k�k��,2.5,��
2021/07/22,01:50,0.629,0.944,0.598,1.140,0.827,0.375,0.649,0.604,�k��,2.3,��
2021/07/22,02:00,0.631,0.944,0.600,1.141,0.824,0.375,0.648,0.604,���k��,1.4,��
2021/07/22,02:10,0.630,0.943,0.598,1.140,0.824,0.375,0.649,0.603,�k��,1.7,��
2021/07/22,02:20,0.630,0.943,0.599,1.142,0.826,0.376,0.648,0.605,�k��,1.7,��
2021/07/22,02:30,0.630,0.943,0.599,1.140,0.825,0.375,0.648,0.603,���k��,1.2,��
2021/07/22,02:40,0.630,0.941,0.599,1.140,0.825,0.375,0.648,0.604,���k��,0.6,��
2021/07/22,02:50,0.628,0.944,0.600,1.141,0.824,0.377,0.649,0.604,�k��,1.2,��
2021/07/22,03:00,0.630,0.942,0.598,1.140,0.825,0.375,0.650,0.604,�k��,1.4,��
2021/07/22,03:10,0.628,0.944,0.600,1.140,0.826,0.375,0.647,0.606,�k�k��,1.2,��
2021/07/22,03:20,0.629,0.943,0.598,1.142,0.825,0.375,0.647,0.603,�k��,1.2,��
2021/07/22,03:30,0.629,0.943,0.599,1.139,0.822,0.375,0.649,0.603,�k��,1.5,��
2021/07/22,03:40,0.628,0.943,0.598,1.143,0.825,0.376,0.648,0.604,�k�k��,1.7,��
2021/07/22,03:50,0.629,0.945,0.599,1.140,0.825,0.376,0.649,0.603,�k,1.2,��
2021/07/22,04:00,0.628,0.947,0.598,1.140,0.825,0.376,0.648,0.604,-,CALM,��
2021/07/22,04:10,0.630,0.942,0.598,1.140,0.824,0.376,0.649,0.605,-,CALM,��
2021/07/22,04:20,0.629,0.944,0.599,1.139,0.827,0.377,0.649,0.604,-,CALM,��
2021/07/22,04:30,0.631,0.943,0.600,1.141,0.825,0.375,0.648,0.604,-,CALM,��
2021/07/22,04:40,0.633,0.944,0.599,1.141,0.825,0.376,0.649,0.604,-,CALM,��
2021/07/22,04:50,0.629,0.944,0.599,1.139,0.825,0.375,0.649,0.603,�k�k��,0.8,��
2021/07/22,05:00,0.629,0.944,0.599,1.140,0.824,0.376,0.649,0.604,�k��,0.6,��
2021/07/22,05:10,0.628,0.944,0.599,1.140,0.824,0.376,0.649,0.605,�k�k��,1.2,��
2021/07/22,05:20,0.629,0.944,0.600,1.141,0.826,0.375,0.649,0.605,�k,0.9,��
2021/07/22,05:30,0.629,0.944,0.599,1.142,0.825,0.377,0.649,0.606,-,CALM,��
2021/07/22,05:40,0.630,0.944,0.600,1.140,0.826,0.375,0.649,0.604,-,CALM,��
2021/07/22,05:50,0.628,0.945,0.598,1.143,0.827,0.376,0.650,0.604,���쐼,0.9,��
2021/07/22,06:00,0.630,0.945,0.600,1.142,0.827,0.377,0.650,0.605,���k��,1.1,��
2021/07/22,06:10,0.630,0.946,0.601,1.143,0.826,0.377,0.650,0.605,�k��,0.9,��
2021/07/22,06:20,0.630,0.946,0.600,1.141,0.828,0.378,0.650,0.607,�k,0.9,��
2021/07/22,06:30,0.630,0.947,0.601,1.142,0.826,0.376,0.650,0.606,�k�k��,1.2,��
2021/07/22,06:40,0.630,0.946,0.601,1.142,0.829,0.377,0.649,0.606,�k��,2.3,��
2021/07/22,06:50,0.629,0.946,0.601,1.141,0.826,0.376,0.651,0.607,�k�k��,1.7,��
2021/07/22,07:00,0.630,0.946,0.600,1.140,0.825,0.374,0.649,0.605,�k�k��,2.0,��
2021/07/22,07:10,0.631,0.944,0.598,1.141,0.824,0.375,0.648,0.606,�k,1.2,��
2021/07/22,07:20,0.631,0.945,0.599,1.141,0.825,0.375,0.650,0.604,�k�k��,1.2,��
2021/07/22,07:30,0.631,0.945,0.599,1.141,0.824,0.373,0.649,0.606,���k��,1.2,��
2021/07/22,07:40,0.633,0.948,0.598,1.140,0.824,0.372,0.649,0.605,�k,1.7,��
2021/07/22,07:50,0.632,0.944,0.600,1.141,0.827,0.374,0.650,0.605,�k��,1.7,��
2021/07/22,08:00,0.630,0.944,0.599,1.141,0.825,0.374,0.650,0.606,�k��,1.5,��
2021/07/22,08:10,0.632,0.946,0.600,1.142,0.825,0.374,0.650,0.606,��,2.2,��
2021/07/22,08:20,0.631,0.944,0.599,1.142,0.824,0.374,0.649,0.606,���k��,2.3,��
2021/07/22,08:30,0.632,0.945,0.599,1.141,0.827,0.375,0.649,0.606,���k��,2.6,��
2021/07/22,08:40,0.629,0.943,0.601,1.141,0.824,0.374,0.650,0.606,��,1.7,��
2021/07/22,08:50,0.629,0.943,0.600,1.141,0.826,0.373,0.649,0.605,��,1.7,��
2021/07/22,09:00,0.632,0.942,0.598,1.141,0.827,0.373,0.649,0.604,�k��,2.2,��
2021/07/22,09:10,0.631,0.943,0.600,1.142,0.828,0.373,0.649,0.604,���k��,2.3,��
2021/07/22,09:20,0.631,0.942,0.598,1.141,0.825,0.374,0.650,0.603,��,2.3,��
2021/07/22,09:30,0.630,0.941,0.598,1.141,0.827,0.376,0.651,0.603,��,2.3,��
2021/07/22,09:40,0.632,0.943,0.600,1.140,0.823,0.374,0.651,0.602,��,2.3,��
2021/07/22,09:50,0.630,0.942,0.599,1.143,0.825,0.375,0.650,0.602,���k��,2.6,��
2021/07/22,10:00,0.631,0.944,0.600,1.143,0.824,0.374,0.649,0.604,���k��,3.2,��
2021/07/22,10:10,0.631,0.941,0.599,1.140,0.825,0.375,0.649,0.602,��,2.6,��
2021/07/22,10:20,0.630,0.942,0.598,1.141,0.826,0.373,0.649,0.603,���쓌,3.2,��
2021/07/22,10:30,0.630,0.939,0.599,1.139,0.825,0.374,0.649,0.605,��,2.5,��
2021/07/22,10:40,0.629,0.941,0.599,1.140,0.825,0.374,0.646,0.602,���k��,2.3,��
2021/07/22,10:50,0.630,0.941,0.598,1.140,0.827,0.375,0.648,0.601,��,2.9,��
2021/07/22,11:00,0.632,0.941,0.597,1.144,0.825,0.373,0.648,0.601,���k��,2.2,��
2021/07/22,11:10,0.630,0.939,0.599,1.143,0.826,0.373,0.649,0.603,���쓌,2.0,��
2021/07/22,11:20,0.630,0.941,0.598,1.142,0.827,0.374,0.647,0.603,���쓌,2.3,��
2021/07/22,11:30,0.629,0.942,0.598,1.139,0.826,0.374,0.649,0.604,���쓌,2.2,��
2021/07/22,11:40,0.631,0.941,0.598,1.141,0.824,0.375,0.649,0.603,��,2.5,��
2021/07/22,11:50,0.630,0.943,0.598,1.143,0.826,0.375,0.650,0.602,��,2.3,��
2021/07/22,12:00,0.631,0.941,0.598,1.142,0.827,0.373,0.650,0.605,�쓌,2.3,��
2021/07/22,12:10,0.630,0.945,0.597,1.141,0.827,0.375,0.649,0.603,���쓌,3.4,��
2021/07/22,12:20,0.630,0.945,0.597,1.140,0.828,0.375,0.650,0.602,��쓌,3.6,��
2021/07/22,12:30,0.629,0.944,0.598,1.140,0.827,0.374,0.649,0.603,�쓌,3.0,��
2021/07/22,12:40,0.630,0.944,0.600,1.142,0.827,0.374,0.650,0.604,�쓌,3.0,��
2021/07/22,12:50,0.632,0.942,0.600,1.142,0.826,0.374,0.650,0.604,��,2.6,��
2021/07/22,13:00,0.632,0.945,0.601,1.144,0.826,0.375,0.651,0.603,���쓌,2.0,��
2021/07/22,13:10,0.632,0.943,0.600,1.140,0.828,0.375,0.650,0.604,�쓌,2.0,��
2021/07/22,13:20,0.631,0.943,0.598,1.142,0.827,0.376,0.649,0.605,���쓌,2.5,��
2021/07/22,13:30,0.630,0.941,0.600,1.144,0.827,0.374,0.650,0.603,���쓌,2.2,��
2021/07/22,13:40,0.632,0.943,0.599,1.139,0.828,0.375,0.651,0.604,���쓌,2.5,��
2021/07/22,13:50,0.632,0.943,0.599,1.141,0.829,0.374,0.650,0.603,��,2.6,��
2021/07/22,14:00,0.628,0.943,0.598,1.141,0.826,0.376,0.650,0.604,��,2.6,��
2021/07/22,14:10,0.631,0.944,0.598,1.142,0.827,0.375,0.648,0.603,���쓌,2.6,��
2021/07/22,14:20,0.631,0.942,0.599,1.143,0.830,0.375,0.649,0.604,���쓌,3.1,��
2021/07/22,14:30,0.630,0.942,0.600,1.140,0.827,0.375,0.650,0.603,�쓌,2.8,��
2021/07/22,14:40,0.631,0.943,0.599,1.141,0.830,0.375,0.650,0.604,���쓌,2.3,��
2021/07/22,14:50,0.631,0.943,0.597,1.144,0.828,0.373,0.650,0.604,���쓌,3.1,��
2021/07/22,15:00,0.632,0.943,0.601,1.141,0.829,0.375,0.649,0.605,�쓌,2.6,��
2021/07/22,15:10,0.631,0.943,0.598,1.142,0.827,0.375,0.650,0.605,�쓌,3.2,��
2021/07/22,15:20,0.632,0.943,0.600,1.143,0.830,0.376,0.649,0.607,�쓌,3.1,��
2021/07/22,15:30,0.632,0.944,0.596,1.142,0.829,0.374,0.648,0.604,�쓌,3.2,��
2021/07/22,15:40,0.631,0.946,0.598,1.145,0.830,0.371,0.647,0.604,�쓌,3.1,��
2021/07/22,15:50,0.631,0.946,0.601,1.142,0.829,0.373,0.649,0.605,�쓌,3.4,��
2021/07/22,16:00,0.631,0.945,0.599,1.141,0.829,0.373,0.649,0.605,���쓌,2.5,��
2021/07/22,16:10,0.629,0.945,0.599,1.144,0.827,0.374,0.648,0.604,�쓌,2.0,��
2021/07/22,16:20,0.631,0.943,0.600,1.140,0.828,0.375,0.650,0.603,�쓌,3.3,��
2021/07/22,16:30,0.631,0.944,0.599,1.145,0.828,0.371,0.651,0.603,�쓌,2.8,��
2021/07/22,16:40,0.631,0.943,0.600,1.138,0.828,0.375,0.648,0.603,��쓌,3.6,��
2021/07/22,16:50,0.631,0.944,0.599,1.142,0.827,0.376,0.649,0.604,��쓌,2.6,��
2021/07/22,17:00,0.630,0.944,0.599,1.145,0.829,0.372,0.649,0.602,��쓌,1.5,��
2021/07/22,17:10,0.632,0.943,0.600,1.141,0.827,0.374,0.650,0.604,�쓌,2.3,��
2021/07/22,17:20,0.631,0.943,0.598,1.143,0.826,0.373,0.649,0.602,��쓌,2.0,��
2021/07/22,17:30,0.633,0.943,0.600,1.142,0.827,0.373,0.649,0.602,�쓌,1.7,��
2021/07/22,17:40,0.633,0.944,0.600,1.145,0.828,0.374,0.650,0.604,��쓌,2.0,��
2021/07/22,17:50,0.633,0.947,0.600,1.146,0.828,0.374,0.650,0.603,�쓌,2.8,��
2021/07/22,18:00,0.631,0.944,0.598,1.144,0.829,0.376,0.650,0.602,��쓌,2.5,��
2021/07/22,18:10,0.632,0.944,0.599,1.144,0.828,0.375,0.649,0.603,��쓌,2.0,��
2021/07/22,18:20,0.631,0.944,0.600,1.144,0.831,0.376,0.650,0.601,��쓌,2.3,��
2021/07/22,18:30,0.632,0.945,0.600,1.145,0.830,0.375,0.648,0.603,��쓌,2.6,��
2021/07/22,18:40,0.633,0.946,0.600,1.145,0.829,0.376,0.651,0.604,��쓌,2.8,��
2021/07/22,18:50,0.633,0.945,0.600,1.144,0.827,0.377,0.650,0.604,��쓌,2.8,��
2021/07/22,19:00,0.633,0.946,0.600,1.144,0.829,0.375,0.650,0.603,��,2.3,��
2021/07/22,19:10,0.633,0.945,0.599,1.144,0.828,0.377,0.650,0.604,��쓌,3.0,��
2021/07/22,19:20,0.632,0.946,0.599,1.144,0.831,0.376,0.649,0.603,��,3.6,��
2021/07/22,19:30,0.632,0.946,0.601,1.146,0.828,0.375,0.650,0.603,��,4.4,��
2021/07/22,19:40,0.632,0.946,0.600,1.145,0.829,0.376,0.650,0.604,��,3.9,��
2021/07/22,19:50,0.633,0.947,0.601,1.143,0.829,0.376,0.649,0.604,��,4.8,��
2021/07/22,20:00,0.633,0.947,0.599,1.146,0.828,0.376,0.648,0.603,��,5.2,��
2021/07/22,20:10,0.633,0.945,0.601,1.143,0.829,0.375,0.650,0.605,��,4.3,��
2021/07/22,20:20,0.632,0.946,0.600,1.145,0.829,0.376,0.650,0.604,��,4.4,��
2021/07/22,20:30,0.632,0.948,0.600,1.144,0.827,0.375,0.650,0.605,��,3.8,��
2021/07/22,20:40,0.632,0.947,0.600,1.145,0.829,0.375,0.650,0.604,��,4.3,��
2021/07/22,20:50,0.632,0.945,0.601,1.144,0.829,0.376,0.649,0.604,��,4.6,��
2021/07/22,21:00,0.632,0.947,0.599,1.147,0.829,0.375,0.650,0.604,��,4.2,��
2021/07/22,21:10,0.634,0.948,0.600,1.144,0.829,0.376,0.650,0.604,��,4.1,��
2021/07/22,21:20,0.629,0.947,0.601,1.144,0.828,0.376,0.651,0.603,��,4.0,��
2021/07/22,21:30,0.632,0.947,0.599,1.145,0.829,0.375,0.649,0.604,��,3.6,��
2021/07/22,21:40,0.632,0.946,0.601,1.145,0.829,0.377,0.651,0.604,��,2.6,��
2021/07/22,21:50,0.631,0.945,0.603,1.145,0.829,0.375,0.650,0.604,��,1.9,��
2021/07/22,22:00,0.632,0.947,0.600,1.145,0.828,0.377,0.648,0.604,��,2.0,��
2021/07/22,22:10,0.632,0.946,0.599,1.145,0.830,0.375,0.651,0.606,��쓌,1.7,��
2021/07/22,22:20,0.632,0.946,0.600,1.146,0.829,0.375,0.649,0.604,��,1.7,��
2021/07/22,22:30,0.632,0.946,0.600,1.147,0.828,0.376,0.650,0.605,��쓌,2.0,��
2021/07/22,22:40,0.632,0.946,0.600,1.144,0.829,0.374,0.650,0.604,��쓌,2.3,��
2021/07/22,22:50,0.631,0.945,0.602,1.145,0.828,0.376,0.649,0.605,��,1.9,��
2021/07/22,23:00,0.631,0.944,0.599,1.146,0.829,0.375,0.651,0.605,��,1.5,��
2021/07/22,23:10,0.632,0.946,0.600,1.146,0.827,0.376,0.651,0.605,��,1.9,��
2021/07/22,23:20,0.631,0.946,0.602,1.145,0.829,0.376,0.651,0.605,��,2.0,��
2021/07/22,23:30,0.633,0.947,0.601,1.146,0.827,0.375,0.649,0.605,��,1.7,��
2021/07/22,23:40,0.630,0.947,0.602,1.144,0.829,0.376,0.651,0.606,��,0.6,��
2021/07/22,23:50,0.631,0.946,0.602,1.145,0.830,0.376,0.651,0.604,�k�k��,1.2,��
